Find Starlink 32348

NORAD ID: 61631 Int'l Des: 2024-191 Owner: SPXS Country: US Constellation: starlink operational
LEOCIRCULAR

Current View

Loading 3D Globe...

About Starlink 32348

Starlink 32348 (NORAD 61631) is a starlink constellation satellite (v2 mini) launched Oct 23, 2024 by SPXS of US. It operates in LEO, CIRCULAR orbit with a mass of 730.00 kg.

About Starlink 32348

Description loading...

Upcoming Passes

Passes for default location (London). Set your location on the main map for personalized predictions.

Altitude History

Loading altitude history...

Two-Line Element Set

1 61631U 24191L 26169.43888153 .00000200 00000-0 16780-4 0 9996
2 61631 43.0030 309.0829 0001167 268.2676 91.8042 15.27576979 92904
Epoch: Jun 18, 2026 • Age: 16 hours

Current Status

Altitude 482.5 km
Velocity 7.63 km/s
Sub-Earth Point 15.67°N, 156.83°E
Launch Date Oct 23, 2024
Age 1.6 years
Type internet

Technical Details

Classification Payload
Mass 730.00 kg
Dry Mass 700.00 kg
Total Mass 730.00 kg
Length 0.30 m
Diameter 4.10 m
Span 29.00 m
Shape Box + pan
Manufacturer SPXS
Bus Type Starlink V2M
Phase Status In Orbit
Owner/State SPXS/US

Most Searched